| time (UTC) | temp C | wind direction | speed KPH | gust KPH | rain 1hr cm | rain 24hr cm | rain mn cm | humidity % | barometer mb |
| 20260505153348 | 10 | 16 | 17.7 | 22.5 | 0.00 | 0.00 | 0.15 | 81 | 237.0 |
| 20260505152847 | 10 | 25 | 14.5 | 22.5 | 0.00 | 0.00 | 0.15 | 82 | 259.1 |
| 20260505152346 | 10 | 32 | 16.1 | 30.6 | 0.00 | 0.00 | 0.15 | 81 | 257.3 |
| 20260505151845 | 10 | 29 | 17.7 | 30.6 | 0.00 | 0.00 | 0.15 | 82 | 259.4 |
| 20260505150828 | 10 | 26 | 14.5 | 29.0 | 0.00 | 0.00 | 0.15 | 83 | 248.6 |
| 20260505150328 | 10 | 29 | 17.7 | 29.0 | 0.00 | 0.00 | 0.15 | 83 | 252.2 |
| 20260505140307 | 10 | 7 | 6.4 | 20.9 | 0.03 | 0.00 | 0.15 | 85 | 397.7 |
| 20260505130245 | 10 | 54 | 9.7 | 22.5 | 0.03 | 0.00 | 0.10 | 84 | 300.0 |
| 20260505124743 | 10 | 33 | 14.5 | 25.7 | 0.03 | 0.00 | 0.10 | 85 | 247.2 |
| 20260505124242 | 10 | 29 | 11.3 | 22.5 | 0.03 | 0.00 | 0.10 | 87 | 240.9 |
| 20260505123741 | 10 | 20 | 11.3 | 22.5 | 0.03 | 0.00 | 0.10 | 88 | 241.0 |
| 20260505122725 | 10 | 14 | 12.9 | 22.5 | 0.03 | 0.00 | 0.10 | 87 | 242.5 |
| 20260505122225 | 10 | 5 | 11.3 | 22.5 | 0.03 | 0.00 | 0.10 | 87 | 253.9 |
| 20260505121724 | 10 | 17 | 11.3 | 22.5 | 0.03 | 0.00 | 0.10 | 86 | 291.7 |
| 20260505121223 | 10 | 14 | 12.9 | 22.5 | 0.00 | 0.00 | 0.08 | 85 | 364.6 |
| 20260505120207 | 10 | 313 | 4.8 | 20.9 | 0.00 | 0.00 | 0.08 | 84 | 505.7 |
| 20260505115706 | 10 | 32 | 9.7 | 22.5 | 0.00 | 0.00 | 0.08 | 84 | 256.9 |
| 20260505115206 | 10 | 41 | 11.3 | 24.1 | 0.00 | 0.00 | 0.08 | 84 | 254.3 |
| 20260505114705 | 10 | 32 | 16.1 | 24.1 | 0.00 | 0.00 | 0.08 | 84 | 245.5 |
| 20260505114205 | 10 | 37 | 11.3 | 24.1 | 0.00 | 0.00 | 0.08 | 84 | 236.2 |
| 20260505113705 | 10 | 13 | 12.9 | 24.1 | 0.00 | 0.00 | 0.08 | 84 | 228.8 |
| 20260505113204 | 10 | 22 | 9.7 | 24.1 | 0.00 | 0.00 | 0.08 | 84 | 253.4 |
| 20260505112703 | 10 | 30 | 11.3 | 24.1 | 0.00 | 0.00 | 0.08 | 84 | 249.7 |
| 20260505112202 | 10 | 31 | 12.9 | 22.5 | 0.00 | 0.00 | 0.08 | 84 | 255.1 |
| 20260505111702 | 10 | 23 | 12.9 | 22.5 | 0.00 | 0.00 | 0.08 | 84 | 251.7 |
| 20260505111202 | 10 | 30 | 12.9 | 22.5 | 0.00 | 0.00 | 0.08 | 84 | 263.2 |
| 20260505110146 | 10 | 30 | 11.3 | 24.1 | 0.03 | 0.00 | 0.08 | 85 | 251.6 |
| 20260505102127 | 11 | 27 | 12.9 | 19.3 | 0.03 | 0.00 | 0.08 | 86 | 274.6 |
| 20260505101627 | 11 | 54 | 9.7 | 19.3 | 0.03 | 0.00 | 0.08 | 86 | 305.3 |
| 20260505101127 | 11 | 40 | 8.0 | 19.3 | 0.03 | 0.00 | 0.08 | 86 | 299.3 |
| 20260505100627 | 11 | 47 | 6.4 | 19.3 | 0.03 | 0.00 | 0.08 | 86 | 296.6 |
| 20260505100127 | 11 | 25 | 12.9 | 20.9 | 0.03 | 0.00 | 0.08 | 86 | 310.5 |
| 20260505095627 | 11 | 4 | 8.0 | 20.9 | 0.00 | 0.00 | 0.05 | 86 | 400.9 |
| 20260505095126 | 11 | 20 | 12.9 | 20.9 | 0.00 | 0.00 | 0.05 | 86 | 245.5 |
| 20260505094626 | 11 | 31 | 11.3 | 24.1 | 0.00 | 0.00 | 0.05 | 85 | 274.1 |
| 20260505094126 | 11 | 33 | 8.0 | 24.1 | 0.00 | 0.00 | 0.05 | 85 | 283.8 |
| 20260505093625 | 11 | 9 | 9.7 | 24.1 | 0.00 | 0.00 | 0.05 | 85 | 323.8 |
| 20260505093124 | 11 | 14 | 11.3 | 24.1 | 0.00 | 0.00 | 0.05 | 85 | 316.9 |
| 20260505092624 | 11 | 10 | 9.7 | 24.1 | 0.00 | 0.00 | 0.05 | 85 | 347.8 |
| 20260505092123 | 11 | 7 | 14.5 | 24.1 | 0.00 | 0.00 | 0.05 | 85 | 443.6 |
| 20260505091623 | 11 | 357 | 11.3 | 24.1 | 0.00 | 0.00 | 0.05 | 85 | 560.9 |
| 20260505091122 | 11 | 6 | 14.5 | 29.0 | 0.00 | 0.00 | 0.05 | 85 | 298.7 |
| 20260505090621 | 11 | 17 | 19.3 | 30.6 | 0.00 | 0.00 | 0.05 | 85 | 255.6 |
| 20260505090121 | 11 | 36 | 17.7 | 30.6 | 0.00 | 0.00 | 0.05 | 85 | 286.4 |
| 20260505085620 | 12 | 44 | 12.9 | 22.5 | 0.00 | 0.00 | 0.05 | 86 | 305.6 |
| 20260505085120 | 12 | 44 | 12.9 | 29.0 | 0.00 | 0.00 | 0.05 | 86 | 318.5 |
| 20260505083549 | 12 | 46 | 12.9 | 22.5 | 0.05 | 0.00 | 0.05 | 85 | 274.4 |
| 20260505083049 | 12 | 45 | 11.3 | 30.6 | 0.05 | 0.00 | 0.05 | 87 | 265.6 |
| 20260505082549 | 12 | 14 | 20.9 | 30.6 | 0.05 | 0.00 | 0.05 | 87 | 258.5 |
| 20260505081533 | 13 | 39 | 11.3 | 20.9 | 0.05 | 0.00 | 0.05 | 88 | 262.4 |
| 20260505081032 | 13 | 11 | 9.7 | 20.9 | 0.05 | 0.00 | 0.05 | 88 | 257.2 |
| 20260505080016 | 13 | 2 | 9.7 | 20.9 | 0.05 | 0.00 | 0.05 | 87 | 300.6 |
| 20260505075516 | 13 | 21 | 9.7 | 24.1 | 0.05 | 0.00 | 0.05 | 86 | 249.5 |
| 20260505075016 | 13 | 40 | 6.4 | 29.0 | 0.05 | 0.00 | 0.05 | 86 | 262.3 |
| 20260505073101 | 15 | 4 | 25.7 | 37.0 | 0.03 | 0.00 | 0.03 | 81 | 842.3 |
| 20260505072601 | 16 | 343 | 22.5 | 24.1 | 0.00 | 0.00 | 0.00 | 76 | 974.4 |
| 20260505072101 | 19 | 336 | 24.1 | 22.5 | 0.00 | 0.00 | 0.00 | 66 | 940.0 |
| 20260505071600 | 20 | 295 | 8.0 | 19.3 | 0.00 | 0.00 | 0.00 | 71 | 871.3 |
| 20260505071100 | 20 | 219 | 0.0 | 19.3 | 0.00 | 0.00 | 0.00 | 70 | 811.2 |
| 20260505070600 | 20 | 219 | 0.0 | 19.3 | 0.00 | 0.00 | 0.00 | 70 | 807.6 |
| 20260505065544 | 20 | 220 | 3.2 | 19.3 | 0.00 | 0.00 | 0.00 | 70 | 793.7 |
| 20260505065043 | 20 | 215 | 3.2 | 19.3 | 0.00 | 0.00 | 0.00 | 70 | 770.0 |
| 20260505064542 | 20 | 209 | 6.4 | 19.3 | 0.00 | 0.00 | 0.00 | 70 | 739.3 |
| 20260505064042 | 20 | 173 | 4.8 | 19.3 | 0.00 | 0.00 | 0.00 | 70 | 692.7 |
| 20260505063541 | 20 | 177 | 4.8 | 19.3 | 0.00 | 0.00 | 0.00 | 70 | 669.4 |
| 20260505063040 | 20 | 149 | 3.2 | 19.3 | 0.00 | 0.00 | 0.00 | 70 | 660.9 |
| 20260505062539 | 20 | 169 | 1.6 | 19.3 | 0.00 | 0.00 | 0.00 | 70 | 703.6 |
| 20260505062038 | 21 | 188 | 3.2 | 19.3 | 0.00 | 0.00 | 0.00 | 70 | 726.3 |
| 20260505061537 | 21 | 201 | 3.2 | 19.3 | 0.00 | 0.00 | 0.00 | 70 | 735.4 |
| 20260505060521 | 21 | 169 | 4.8 | 19.3 | 0.00 | 0.00 | 0.00 | 70 | 688.1 |
| 20260505060020 | 21 | 189 | 4.8 | 19.3 | 0.00 | 0.00 | 0.00 | 70 | 689.3 |
| 20260505055519 | 21 | 173 | 3.2 | 19.3 | 0.00 | 0.00 | 0.00 | 69 | 686.1 |
| 20260505054503 | 21 | 176 | 4.8 | 19.3 | 0.00 | 0.00 | 0.00 | 69 | 683.5 |
| 20260505054003 | 21 | 183 | 4.8 | 19.3 | 0.00 | 0.00 | 0.00 | 69 | 679.3 |
| 20260505053503 | 21 | 169 | 6.4 | 19.3 | 0.00 | 0.00 | 0.00 | 69 | 660.3 |
| 20260505053003 | 21 | 167 | 3.2 | 19.3 | 0.00 | 0.00 | 0.00 | 69 | 662.4 |
| 20260505052503 | 21 | 163 | 3.2 | 19.3 | 0.00 | 0.00 | 0.00 | 69 | 660.3 |
| 20260505052002 | 21 | 166 | 4.8 | 19.3 | 0.00 | 0.00 | 0.00 | 69 | 657.7 |
| 20260505050947 | 21 | 162 | 3.2 | 19.3 | 0.00 | 0.00 | 0.00 | 69 | 638.0 |
| 20260505041358 | 22 | 170 | 4.8 | 19.3 | 0.00 | 0.00 | 0.00 | 66 | 662.5 |
| 20260505040858 | 22 | 167 | 3.2 | 19.3 | 0.00 | 0.00 | 0.00 | 65 | 664.0 |
| 20260505035325 | 22 | 179 | 4.8 | 19.3 | 0.00 | 0.00 | 0.00 | 65 | 686.9 |
| 20260505034825 | 22 | 173 | 3.2 | 19.3 | 0.00 | 0.00 | 0.00 | 64 | 665.9 |
| 20260505034324 | 22 | 171 | 4.8 | 19.3 | 0.00 | 0.00 | 0.00 | 64 | 672.9 |
| 20260505033823 | 22 | 167 | 6.4 | 19.3 | 0.00 | 0.00 | 0.00 | 64 | 672.2 |
| 20260505033323 | 22 | 166 | 6.4 | 19.3 | 0.00 | 0.00 | 0.00 | 64 | 675.0 |
| 20260505032822 | 22 | 180 | 8.0 | 19.3 | 0.00 | 0.00 | 0.00 | 64 | 672.5 |
| 20260505032321 | 22 | 173 | 8.0 | 19.3 | 0.00 | 0.00 | 0.00 | 64 | 679.0 |
| 20260505031305 | 22 | 172 | 6.4 | 19.3 | 0.00 | 0.00 | 0.00 | 64 | 696.2 |
| 20260505030804 | 22 | 183 | 3.2 | 19.3 | 0.00 | 0.00 | 0.00 | 64 | 701.8 |
| 20260505030303 | 22 | 176 | 1.6 | 19.3 | 0.00 | 0.00 | 0.00 | 64 | 711.4 |
| 20260505025802 | 22 | 183 | 1.6 | 19.3 | 0.00 | 0.00 | 0.00 | 64 | 733.8 |
| 20260505025301 | 22 | 211 | 3.2 | 19.3 | 0.00 | 0.00 | 0.00 | 64 | 773.1 |
| 20260505024800 | 22 | 210 | 4.8 | 19.3 | 0.00 | 0.00 | 0.00 | 64 | 749.6 |
| 20260505024300 | 22 | 189 | 4.8 | 19.3 | 0.00 | 0.00 | 0.00 | 64 | 719.0 |
| 20260505022729 | 23 | 185 | 1.6 | 19.3 | 0.00 | 0.00 | 0.00 | 64 | 708.9 |
| 20260505021713 | 23 | 176 | 1.6 | 19.3 | 0.00 | 0.00 | 0.00 | 64 | 694.3 |
| 20260505021212 | 23 | 169 | 3.2 | 19.3 | 0.00 | 0.00 | 0.00 | 64 | 699.2 |
| 20260505020711 | 23 | 195 | 3.2 | 19.3 | 0.00 | 0.00 | 0.00 | 64 | 738.7 |
| 20260505020210 | 23 | 203 | 3.2 | 19.3 | 0.00 | 0.00 | 0.00 | 63 | 745.9 |
| 20260505015709 | 23 | 186 | 6.4 | 19.3 | 0.00 | 0.00 | 0.00 | 64 | 744.0 |
| 20260505015208 | 23 | 221 | 8.0 | 19.3 | 0.00 | 0.00 | 0.00 | 64 | 738.5 |
| 20260505014708 | 23 | 175 | 6.4 | 19.3 | 0.00 | 0.00 | 0.00 | 64 | 673.1 |
| 20260505014207 | 23 | 154 | 4.8 | 17.7 | 0.00 | 0.00 | 0.00 | 63 | 653.5 |
| 20260505013706 | 23 | 176 | 1.6 | 17.7 | 0.00 | 0.00 | 0.00 | 63 | 659.3 |
| 20260505013206 | 23 | 149 | 1.6 | 17.7 | 0.00 | 0.00 | 0.00 | 63 | 628.2 |
| 20260505012706 | 24 | 173 | 3.2 | 17.7 | 0.00 | 0.00 | 0.00 | 63 | 651.1 |
| 20260505012205 | 24 | 156 | 4.8 | 17.7 | 0.00 | 0.00 | 0.00 | 62 | 651.7 |
| 20260505011149 | 24 | 183 | 6.4 | 17.7 | 0.00 | 0.00 | 0.00 | 62 | 692.8 |
| 20260505010648 | 24 | 177 | 8.0 | 17.7 | 0.00 | 0.00 | 0.00 | 62 | 700.3 |
| 20260505010147 | 25 | 179 | 8.0 | 17.7 | 0.00 | 0.00 | 0.00 | 61 | 684.3 |
| 20260505005131 | 25 | 170 | 8.0 | 17.7 | 0.00 | 0.00 | 0.00 | 61 | 686.3 |
| 20260505004630 | 25 | 160 | 4.8 | 17.7 | 0.00 | 0.00 | 0.00 | 60 | 699.8 |
| 20260505004129 | 25 | 187 | 6.4 | 24.1 | 0.00 | 0.00 | 0.00 | 60 | 723.0 |
| 20260505003628 | 25 | 189 | 9.7 | 24.1 | 0.00 | 0.00 | 0.00 | 59 | 734.0 |
| 20260505003128 | 25 | 181 | 4.8 | 20.9 | 0.00 | 0.00 | 0.00 | 59 | 747.6 |
| 20260505002627 | 26 | 204 | 12.9 | 20.9 | 0.00 | 0.00 | 0.00 | 59 | 777.5 |
| 20260505002127 | 26 | 221 | 6.4 | 22.5 | 0.00 | 0.00 | 0.00 | 58 | 782.8 |
| 20260505001626 | 26 | 209 | 6.4 | 22.5 | 0.00 | 0.00 | 0.00 | 58 | 768.7 |
| 20260505001125 | 26 | 203 | 11.3 | 22.5 | 0.00 | 0.00 | 0.00 | 57 | 762.8 |
| 20260505000624 | 26 | 195 | 8.0 | 22.5 | 0.00 | 0.00 | 0.00 | 57 | 767.6 |
| 20260505000123 | 26 | 204 | 8.0 | 22.5 | 0.00 | 0.00 | 0.00 | 57 | 778.5 |
| 20260504235623 | 26 | 212 | 8.0 | 22.5 | 0.00 | 0.00 | 0.00 | 56 | 780.2 |
| 20260504235122 | 26 | 202 | 8.0 | 20.9 | 0.00 | 0.00 | 0.00 | 56 | 772.1 |
| 20260504234621 | 26 | 216 | 8.0 | 20.9 | 0.00 | 0.00 | 0.00 | 56 | 767.6 |
| 20260504234121 | 26 | 205 | 9.7 | 20.9 | 0.00 | 0.00 | 0.00 | 55 | 761.1 |
| 20260504233620 | 26 | 196 | 11.3 | 22.5 | 0.00 | 0.00 | 0.00 | 55 | 754.3 |
| 20260504233119 | 27 | 204 | 11.3 | 22.5 | 0.00 | 0.00 | 0.00 | 55 | 748.6 |
| 20260504232618 | 27 | 193 | 9.7 | 22.5 | 0.00 | 0.00 | 0.00 | 54 | 732.8 |
| 20260504232117 | 27 | 182 | 8.0 | 22.5 | 0.00 | 0.00 | 0.00 | 54 | 731.5 |
| 20260504231616 | 27 | 191 | 12.9 | 22.5 | 0.00 | 0.00 | 0.00 | 54 | 752.4 |
| 20260504231115 | 27 | 204 | 9.7 | 19.3 | 0.00 | 0.00 | 0.00 | 53 | 767.4 |
| 20260504230614 | 27 | 198 | 4.8 | 24.1 | 0.00 | 0.00 | 0.00 | 54 | 766.3 |
| 20260504225558 | 27 | 191 | 4.8 | 24.1 | 0.00 | 0.00 | 0.00 | 53 | 746.6 |
| 20260504225057 | 27 | 193 | 6.4 | 24.1 | 0.00 | 0.00 | 0.00 | 53 | 759.3 |
| 20260504224041 | 27 | 211 | 8.0 | 24.1 | 0.00 | 0.00 | 0.00 | 51 | 784.8 |
| 20260504223025 | 28 | 234 | 8.0 | 24.1 | 0.00 | 0.00 | 0.00 | 49 | 801.4 |
| 20260504222524 | 28 | 206 | 12.9 | 22.5 | 0.00 | 0.00 | 0.00 | 48 | 776.4 |
| 20260504222023 | 28 | 219 | 9.7 | 35.4 | 0.00 | 0.00 | 0.00 | 48 | 797.0 |
| 20260504221522 | 28 | 196 | 8.0 | 35.4 | 0.00 | 0.00 | 0.00 | 49 | 771.9 |
| 20260504221022 | 28 | 220 | 12.9 | 29.0 | 0.00 | 0.00 | 0.00 | 48 | 778.6 |
| 20260504220006 | 28 | 206 | 11.3 | 30.6 | 0.00 | 0.00 | 0.00 | 49 | 794.0 |
| 20260504215506 | 28 | 211 | 8.0 | 25.7 | 0.00 | 0.00 | 0.00 | 49 | 803.4 |
| 20260504215006 | 28 | 201 | 11.3 | 25.7 | 0.00 | 0.00 | 0.00 | 49 | 799.9 |
| 20260504214506 | 27 | 219 | 12.9 | 25.7 | 0.00 | 0.00 | 0.00 | 49 | 811.4 |
| 20260504214005 | 27 | 211 | 9.7 | 22.5 | 0.00 | 0.00 | 0.00 | 49 | 799.9 |
| 20260504212949 | 27 | 208 | 9.7 | 22.5 | 0.00 | 0.00 | 0.00 | 49 | 784.9 |
| 20260504212448 | 27 | 219 | 11.3 | 32.2 | 0.00 | 0.00 | 0.00 | 50 | 784.6 |
| 20260504211947 | 27 | 202 | 9.7 | 32.2 | 0.00 | 0.00 | 0.00 | 50 | 766.3 |
| 20260504210930 | 27 | 197 | 14.5 | 29.0 | 0.00 | 0.00 | 0.00 | 50 | 760.4 |
| 20260504210429 | 27 | 199 | 12.9 | 29.0 | 0.00 | 0.00 | 0.00 | 49 | 777.4 |
| 20260504205928 | 27 | 222 | 9.7 | 24.1 | 0.00 | 0.00 | 0.00 | 50 | 794.4 |
| 20260504204912 | 27 | 229 | 11.3 | 33.8 | 0.00 | 0.00 | 0.00 | 49 | 816.5 |
| 20260504204411 | 27 | 222 | 11.3 | 33.8 | 0.00 | 0.00 | 0.00 | 49 | 797.2 |
| 20260504203910 | 27 | 195 | 9.7 | 24.1 | 0.00 | 0.00 | 0.00 | 49 | 776.8 |
| 20260504203410 | 27 | 215 | 11.3 | 24.1 | 0.00 | 0.00 | 0.00 | 49 | 787.1 |
| 20260504202909 | 27 | 207 | 11.3 | 33.8 | 0.00 | 0.00 | 0.00 | 49 | 780.9 |
| 20260504202409 | 27 | 213 | 9.7 | 32.2 | 0.00 | 0.00 | 0.00 | 50 | 786.7 |
| 20260504201908 | 27 | 215 | 11.3 | 25.7 | 0.00 | 0.00 | 0.00 | 49 | 775.5 |
| 20260504201407 | 27 | 191 | 14.5 | 20.9 | 0.00 | 0.00 | 0.00 | 48 | 768.5 |
| 20260504200351 | 27 | 184 | 14.5 | 29.0 | 0.00 | 0.00 | 0.00 | 49 | 769.6 |
| 20260504195850 | 27 | 210 | 11.3 | 25.7 | 0.00 | 0.00 | 0.00 | 50 | 795.5 |
| 20260504195349 | 27 | 210 | 12.9 | 25.7 | 0.00 | 0.00 | 0.00 | 49 | 793.7 |
| 20260504194849 | 27 | 205 | 12.9 | 25.7 | 0.00 | 0.00 | 0.00 | 50 | 788.8 |
| 20260504194348 | 27 | 194 | 16.1 | 24.1 | 0.00 | 0.00 | 0.00 | 49 | 787.3 |
| 20260504193847 | 27 | 206 | 8.0 | 24.1 | 0.00 | 0.00 | 0.00 | 50 | 782.0 |
| 20260504191322 | 27 | 199 | 9.7 | 30.6 | 0.00 | 0.00 | 0.00 | 50 | 780.8 |
| 20260504190821 | 27 | 227 | 11.3 | 30.6 | 0.00 | 0.00 | 0.00 | 50 | 803.3 |
| 20260504190320 | 27 | 216 | 11.3 | 29.0 | 0.00 | 0.00 | 0.00 | 50 | 782.5 |
| 20260504185304 | 27 | 209 | 8.0 | 24.1 | 0.00 | 0.00 | 0.00 | 51 | 796.9 |
| 20260504184803 | 26 | 205 | 12.9 | 24.1 | 0.00 | 0.00 | 0.00 | 50 | 802.1 |
| 20260504184303 | 26 | 216 | 12.9 | 33.8 | 0.00 | 0.00 | 0.00 | 52 | 803.3 |
| 20260504183247 | 26 | 239 | 12.9 | 45.1 | 0.00 | 0.00 | 0.00 | 50 | 809.3 |
| 20260504182746 | 26 | 210 | 16.1 | 45.1 | 0.00 | 0.00 | 0.00 | 50 | 772.2 |
| 20260504182245 | 26 | 205 | 11.3 | 29.0 | 0.00 | 0.00 | 0.00 | 52 | 754.3 |
| 20260504181744 | 26 | 201 | 11.3 | 32.2 | 0.00 | 0.00 | 0.00 | 52 | 742.9 |
| 20260504180728 | 25 | 202 | 11.3 | 35.4 | 0.00 | 0.00 | 0.00 | 52 | 759.3 |
| 20260504180227 | 25 | 211 | 14.5 | 35.4 | 0.00 | 0.00 | 0.00 | 52 | 757.5 |
| 20260504175727 | 25 | 205 | 11.3 | 30.6 | 0.00 | 0.00 | 0.00 | 52 | 756.2 |
| 20260504174205 | 25 | 194 | 9.7 | 25.7 | 0.00 | 0.00 | 0.00 | 53 | 788.0 |
| 20260504173704 | 25 | 245 | 12.9 | 29.0 | 0.00 | 0.00 | 0.00 | 52 | 809.5 |
| 20260504173203 | 25 | 196 | 11.3 | 30.6 | 0.00 | 0.00 | 0.00 | 52 | 778.3 |
| 20260504172703 | 25 | 202 | 11.3 | 37.0 | 0.00 | 0.00 | 0.00 | 52 | 810.4 |
| 20260504172202 | 25 | 214 | 16.1 | 37.0 | 0.00 | 0.00 | 0.00 | 52 | 801.6 |
| 20260504171701 | 25 | 212 | 14.5 | 30.6 | 0.00 | 0.00 | 0.00 | 52 | 808.4 |
| 20260504171201 | 25 | 225 | 12.9 | 35.4 | 0.00 | 0.00 | 0.00 | 53 | 809.1 |
| 20260504170701 | 24 | 226 | 16.1 | 35.4 | 0.00 | 0.00 | 0.00 | 52 | 813.0 |
| 20260504170200 | 24 | 208 | 14.5 | 32.2 | 0.00 | 0.00 | 0.00 | 53 | 800.3 |
| 20260504160106 | 22 | 206 | 9.7 | 25.7 | 0.00 | 0.00 | 0.00 | 56 | 777.5 |